Location: Boulin
(43.2500°N, 0.1333°E)
Time: 10:11:27
(UTC+00:00)

CZ-4C R/B - Pass Details

Date: 11 December 2025
Orbit: 484 x 1495 km, 63.4° (Epoch: 21 January)

Event Time Altitude Azimuth Distance (km) Brightness Sun altitude
Rises 17:38:02 0° 322° (NW) 3,769 5.8 -13.0°
Reaches altitude 10° 17:40:26 10° 322° (NW) 2,947 5.3 -13.4°
Maximum altitude 17:47:42 82° 236° (WSW) 1,301 3.2 -14.7°
Drops below altitude 10° 17:56:34 10° 150° (SSE) 3,555 5.3 -16.2°
Sets 17:59:42 0° 150° (SSE) 4,583 5.9 -16.7°
